Regional Weather Roundup
Issued by NWS Charleston, SC

Current Version | Previous Version | Text Only | Print | Product List | Glossary Off
Versions: 1 2 3 4 5 6 7 8 9 10 11 12 13 14 15 16 17 18 19 20 21 22 23 24 25 26 27 28 29 30 31 32 33 34 35 36 37 38 39 40 41 42 43 44 45 46 47 48 49 50

000
ASUS42 KCHS 290512
RWRCHS

REGIONAL WEATHER ROUNDUP
NATIONAL WEATHER SERVICE CHARLESTON SC
100 AM EDT MON MAY 29 2017

NOTE: "FAIR" INDICATES FEW OR NO CLOUDS BELOW 12,000 FEET WITH NO
SIGNIFICANT WEATHER AND/OR OBSTRUCTIONS TO VISIBILITY.

NOT ALL STATIONS ARE QUALITY CONTROLLED. USE DATA WITH CAUTION...
ESPECIALLY DEWPOINT OBSERVATIONS.

SCZ027-030-031-034>040-042>050-290600-
...SOUTHEAST SOUTH CAROLINA...

CITY           SKY/WX    TMP DP  RH WIND       PRES   REMARKS
N CHARLESTON   PTCLDY    76  73  91 SW9       29.89F
WATERFRONT PRK   N/A     78  76  94 SW7       29.88S
JOHNS ISLAND   FAIR      79  75  89 SW9       29.91S
PINOPOLIS        N/A     81  72  74 CALM      29.82S
MONCKS CORNER  FAIR      73  72  94 CALM      29.89S
SUMMERVILLE    FAIR      73  70  88 CALM      29.90S
BEAUFORT MCAS  CLEAR     77  72  84 SW6       29.92R
BEAUFORT ARPT  NOT AVBL
HILTON HEAD IS CLEAR     81  77  89 S7        29.93S
WALTERBORO     MOCLDY    77  68  73 SW5       29.91S
ALLENDALE      FAIR      73  70  88 CALM      29.91R

...SOUTHERN MIDLANDS AND PEE DEE...

CITY           SKY/WX    TMP DP  RH WIND       PRES   REMARKS
GEORGETOWN     FAIR      72  72 100 CALM      29.88F
KINGSTREE      FAIR     N/A N/A N/A CALM      29.88S
ORANGEBURG     CLEAR     72  70  93 CALM      29.90R
BARNWELL       FAIR      75  70  83 SW6       29.92R
AIKEN          FAIR      70  68  94 SW3       29.95S
MANNING        FAIR      72  72 100 S6        29.89S
COLUMBIA       CLEAR     73  69  87 CALM      29.89R
SUMTER         CLEAR     72  70  92 CALM      29.86S
FLORENCE       CLEAR     70  70 100 SW5       29.87F
MYRTLE BEACH   PTCLDY    74  71  91 SW7       29.88
N MYRTLE BEACH CLEAR     71  69  93 CALM      29.86F

$$

GAZ063-065-086>088-099>101-113>116-118-119-134>141-150-290600-
...SOUTHEAST GEORGIA...

CITY           SKY/WX    TMP DP  RH WIND       PRES   REMARKS
SAVANNAH ARPT  CLEAR     76  67  73 W3        29.94R
HUNTER AAF     CLEAR     75  73  93 CALM      29.91R
FORT STEWART   CLEAR     76  67  73 SW7       29.93R
STATESBORO     PTCLDY    79  69  72 W5        29.94R
SYLVANIA       CLEAR     78  71  77 CALM      29.94R
CLAXTON        FAIR      77  74  92 SW7       29.95R

...CSRA...CENTRAL AND FAR SOUTHEAST GEORGIA...

CITY           SKY/WX    TMP DP  RH WIND       PRES   REMARKS
THOMSON        PTCLDY    70  67  90 W3        29.98S
AUGUSTA-BUSH   PTCLDY    73  69  87 W5        29.92R
AUGUSTA-DANIEL MOCLDY    78  64  61 CALM      29.93R
SWAINSBORO     FAIR      77  68  73 W6        29.96R
VIDALIA        CLEAR     81  70  69 W6        29.96S
EASTMAN        FAIR      78  61  56 SW3       29.99S
HAZLEHURST     FAIR      78  71  80 CALM      29.97R
ALMA           PTCLDY    80  71  74 W3        29.97R
WAYCROSS       PTCLDY    81  78  93 SW3       29.97S
JESUP          FAIR      79  68  69 CALM      29.97R
BAXLEY         FAIR      79  72  78 W3        29.97R
BRUNSWICK      CLEAR     81  73  78 SW7       29.96R
SAINT SIMONS   CLEAR     82  73  74 W8        29.96R

$$

SCZ027-028-034-036>038-045-046-048>050-GAZ119-141-290600-
...LAKE AND SUPPLEMENTAL COASTAL OBSERVATIONS...

STATION/POSITION TIME  TEMP    WIND        PRES    WAVE   SWELL
                       AIR SEA DIR/SP/G            HT/PER HT/PER/DIR
                 (UTC) (F)     (DEG/KT/KT) (MB)    (FT/S) (FT/S/D)
WINYAH BAY       0345   77     150/  5     1012.0
LAKE MURRAY      0420   75     260/  6/  7 1011.2
ACE BASIN NERRS  NOT AVBL
FORT PULASKI     0442   79     220/  4/  6 1013.7R
SAPELO ISLAND    0400   81     230/  8     1014.0

$$

ANZ835-935-AMZ111-154-330-350-352-354-370-450-454-472-290600-
...C-MAN AND BUOY OBSERVATIONS...

STATION/POSITION TIME  TEMP    WIND        PRES    WAVE   SWELL
                       AIR SEA DIR/SP/G            HT/PER HT/PER/DIR
                 (UTC) (F)     (DEG/KT/KT) (MB)    (FT/S) (FT/S/D)
BUOY 41004       0450   78 76  220/ 16/ 17 1012.3F   3/ 5
BUOY 41008       0350   79 78  180/ 14/ 14 1013.2    3/ 4   2/100/ 9
FOLLY BEACH CMAN 0400   78     220/ 12/ 14 1013.4S
CAPERS NEARSHORE 0408   80 78  220/ 14/ 19 1012.1S
FRIPP NEARSHORE  0408   79 79  210/ 12/ 16 1012.6R


STATION/POSITION TIME  TEMP    WIND        PRES    WAVE   SWELL
                       AIR SEA DIR/SP/G            HT/PER HT/PER/DIR
                 (UTC) (F)     (DEG/KT/KT) (MB)    (FT/S) (FT/S/D)
5E ST. MARYS GA  0430      79                N/A     2/ 4
FRYING PAN BUOY  0450   76 75  220/ 16/ 17 1011.1F   4/ 5
BUOY 41025       0450   76 76  230/ 21/ 25 1008.6F   5/ 6
CAPE LOOKOUT NC  0400   75     210/ 13/ 17 1009.1F
BUOY 41002       0350   77 77  210/ 12/ 16 1014.7    3/ 7   2/240/ 7
BUOY 41010       0450   80 80  190/ 12/ 14 1015.0F   2/ 4   2/ 90/ 7
ST AUGUSTINE FL  0500   78 78  260/  6/  8 1016.2R


$$



USA.gov is the U.S. government's official web portal to all federal, state and local government web resources and services.